www.pogodaiklimat.ru

Погода и климат >> Архив погоды >> Финляндия >> Лаппеенранта


ПОГОДА в Лаппеенранте

  • Прогноз погоды в Лаппеенранте
  • Монитор погоды в Лаппеенранте

АРХИВ ПОГОДЫ в Лаппеенранте

Время (UTC), дата Ветер
(напр.,м/с)
 
Видим.   Явления Облачность Т
(С)
Тd
(С)
f
(%)
Тe
(С)
Тes
(С)
Комфортность P
(гПа)
Po
(гПа)
Тmin
(С)
Tmax
(С)
R
(мм)
R24
(мм)
S
(см)
22 9.09 В 2 13 км 8/8 50 м
[]
+12.9 +12.6 98 +12 +12 1023.6 1010.9
23 9.09 ЮВ 2 6000 м дымка 9/9 <50 м
[]
+12.7 +12.4 98 +12 +12 1023.4 1010.8
00 10.09 ЮВ 3-4
{4}
1000 м дымка ?/? +12.4 +12.2 99 +11 +11 1023.3 1010.6
01 10.09 В 2-4
{4}
400 м туман ?/? +12.2 +12.1 99 +11 +11 1023.2 1010.5
02 10.09 В 3 6000 м слаб. дождь 9/9 <50 м
[]
+12.8 +12.7 99 +11 +11 1022.6 1009.9
03 10.09 В 2-4
{4}
400 м туман ?/? +12.9 +12.8 99 +12 +12 1022.6 1009.9
04 10.09 В 2 700 м туман ?/? +13.5 +13.4 99 +13 +13 1022.8 1010.1
05 10.09 В 2-4
{5}
500 м туман ?/? +13.3 +13.1 99 +12 +12 1022.9 1010.3
06 10.09 СВ 2-3
{4}
700 м туман ?/? +14.1 +14.0 99 +13 +13 1023.2 1010.6 +12.2 +14.4 0.4
07 10.09 В 2 3900 м в посл. час туман 10/10 50 м
[]
+14.9 +14.7 99 +15 +15 1023.0 1010.4
08 10.09 В 2 8000 м дымка 10/10 100 м
[]
+15.8 +15.5 98 +16 +16 1023.0 1010.4
09 10.09 В 2-4
{5}
27 км 4/4 200 м
[]
+18.1 +15.5 85 +19 +22 1022.9 1010.4
10 10.09 ЮВ 3 35 км ясно +20.4 +16.3 77 +24 +29 комфорт 1022.6 1010.2
11 10.09 ЮВ 3 45 км ясно +22.0 +15.7 67 +26 +31 душно 1022.2 1009.9
12 10.09 Ю 3-7
{7}
35 км ясно +24.0 +15.2 58 +27 +31 жарко 1021.8 1009.6
13 10.09 Ю 4 45 км ясно +24.7 +13.6 50 +27 +29 жарко 1021.5 1009.3
14 10.09 Ю 3-6
{8}
35 км ясно +24.7 +14.1 52 +27 +29 жарко 1021.3 1009.1
15 10.09 Ю 2-5
{6}
40 км ясно +23.7 +14.1 55 +26 +27 жарко 1021.2 1009.0
16 10.09 Ю 3 40 км ясно +22.7 +14.1 58 +26 +26 жарко 1021.1 1008.9
17 10.09 Ю 3 35 км ясно +20.4 +14.0 67 +23 +23 комфорт 1021.4 1009.1
18 10.09 Ю 3-5
{6}
35 км ясно +19.3 +13.6 70 +21 +21 комфорт 1021.6 1009.2 +14.1 +24.8
19 10.09 ЮВ 3-4
{5}
35 км ясно +17.9 +13.5 75 +18 +18 1021.7 1009.2
20 10.09 ЮВ 3 30 км ясно +17.7 +13.8 78 +18 +18 1021.5 1009.0
21 10.09 Ю 3-4
{5}
28 км ясно +16.8 +14.1 84 +17 +17 1021.4 1008.9
22 10.09 ЮВ 3-5
{5}
24 км ясно +16.6 +14.3 86 +16 +16 1021.3 1008.8
23 10.09 ЮВ 3 22 км 1/0
[]
+16.5 +14.4 87 +16 +16 1020.9 1008.4
00 11.09 ЮВ 3-4
{5}
22 км ясно +15.9 +14.2 90 +15 +15 1020.7 1008.2
01 11.09 ЮВ 3 24 км ясно +15.7 +14.1 90 +15 +15 1020.4 1007.8
02 11.09 ЮВ 3 19 км 6/3
[]
+15.2 +13.8 91 +14 +14 1020.0 1007.4
03 11.09 ЮВ 3-5
{5}
21 км 9/9
[]
+15.2 +13.9 92 +14 +14 1019.3 1006.8
04 11.09 ЮВ 3 20 км 10/10
[]
+15.2 +13.8 91 +14 +14 1018.8 1006.3
05 11.09 Ю 3 23 км 9/9
[]
+15.5 +14.0 91 +15 +15 1018.7 1006.2
06 11.09 Ю 3-5
{6}
26 км 5/5
[]
+16.3 +14.2 87 +16 +17 1018.7 1006.2 +15.0 +19.3
07 11.09 Ю 2-5
{5}
35 км 4/0
[]
+17.6 +14.6 83 +18 +20 1018.4 1006.0
08 11.09 Ю 4-9
{9}
12 км 1/0 600 м
[]
+18.7 +13.4 71 +19 +22 1017.9 1005.5
09 11.09 Ю 4-9
{9}
50 км 3/3 600 м
[]
+19.0 +11.2 61 +20 +23 1017.4 1005.1
10 11.09 Ю 3 50 км 4/4 1000 м
[]
+18.6 +10.6 60 +19 +22 1017.1 1004.7
11 11.09 Ю 4 50 км 6/6 1000 м
[]
+19.0 +10.3 57 +20 +21 1016.9 1004.6
12 11.09 Ю 5-12
{12}
50 км 5/5 1000 м
[]
+18.5 +9.3 55 +19 +20 1016.7 1004.3
13 11.09 Ю 3 50 км слаб. ливневой дождь 9/9 1000 м
[]
+16.1 +10.7 70 +16 +16 1017.1 1004.6
14 11.09 Ю 4 23 км слаб. дождь 10/10 1000 м
[]
+14.5 +12.5 88 +13 +13 1017.0 1004.5
15 11.09 Ю 2-5
{5}
23 км слаб. дождь 10/10 1000 м
[]
+14.2 +12.7 91 +14 +14 1016.6 1004.0 0.2
16 11.09 Ю 3 13 км слаб. ливневой дождь 10/10 200 м
[]
+13.9 +12.9 94 +13 +13 1015.9 1003.4
17 11.09 Ю 4 40 км слаб. ливневой дождь 10/10 600 м
[]
+14.3 +13.1 92 +13 +13 1015.3 1002.8
18 11.09 Ю 3-8
{8}
50 км в посл. час дождь 10/10 300 м
[]
+15.1 +13.2 88 +14 +14 1015.1 1002.6 +13.8 +19.7 1
19 11.09 Ю 3-7
{10}
45 км в посл. час дождь 10/0 300 м
[]
+14.9 +13.6 92 +14 +14 1014.9 1002.4 0.1
20 11.09 Ю 3-6
{7}
50 км слаб. ливневой дождь 9/0 300 м
[]
+15.1 +13.7 91 +14 +14 1014.4 1001.9
21 11.09 Ю 3-8
{8}
29 км слаб. ливневой дождь 9/9 300 м
[]
+15.0 +14.0 94 +14 +14 1014.2 1001.7 0.3
22 11.09 Ю 3 6000 м дождь 10/10 200 м
[]
+14.7 +14.2 97 +14 +14 1014.2 1001.8
23 11.09 ЮЗ 3 4500 м ливневой дождь 10/10 200 м
[]
+14.7 +14.1 96 +14 +14 1014.4 1002.0
00 12.09 ЮЗ 4-11
{11}
2100 м сильн. ливневой дождь 10/10 100 м
[]
+14.7 +14.3 97 +13 +13 1014.4 1001.9 6
01 12.09 ЮЗ 4-8
{9}
35 км слаб. морось 9/5 300 м
[]
+14.3 +13.4 94 +13 +13 1014.7 1002.2
02 12.09 ЮЗ 3-6
{8}
27 км в посл. час морось 5/5 300 м
[]
+13.8 +12.9 94 +13 +13 1015.0 1002.4
03 12.09 Ю 2-6
{7}
21 км 9/9 200 м
[]
+13.8 +13.1 96 +13 +13 1014.9 1002.4
04 12.09 Ю 2 27 км 9/9 200 м
[]
+13.6 +12.8 95 +13 +13 1014.8 1002.2
05 12.09 Ю 2-5
{6}
40 км 9/9 300 м
[]
+13.8 +12.6 92 +13 +13 1014.8 1002.2
06 12.09 Ю 2-7
{7}
45 км 9/9 300 м
[]
+14.4 +12.6 89 +14 +14 1014.5 1002.0 +13.6 +15.4 11
07 12.09 Ю 3 45 км 9/9 300 м
[]
+14.6 +12.4 87 +14 +14 1014.2 1001.7
08 12.09 Ю 3 50 км 9/6 300 м
[]
+15.4 +12.2 81 +15 +16 1014.0 1001.5
09 12.09 Ю 4-14
{14}
45 км 6/1 600 м
[]
+17.3 +11.2 67 +17 +19 1013.3 1000.9
10 12.09 ЮЗ 4 50 км 9/9 600 м
[]
+16.7 +10.5 67 +16 +17 1013.0 1000.6
11 12.09 Ю 4 45 км слаб. дождь 9/9 600 м
[]
+15.9 +10.5 70 +15 +16 1012.7 1000.3
12 12.09 Ю 3-8
{12}
9000 м дождь 10/10 300 м
[]
+13.2 +12.2 94 +12 +12 1012.6 1000.0
13 12.09 Ю 3-7
{8}
8000 м слаб. дождь 10/0 100 м
[]
+13.0 +12.4 96 +12 +12 1011.9 999.3 0.5
14 12.09 Ю 3 18 км в посл. час дождь 10/10 100 м
[]
+13.7 +13.1 96 +12 +12 1011.4 998.9
15 12.09 Ю 3-8
{8}
30 км в посл. час дождь 9/9 200 м
[]
+14.4 +13.2 92 +13 +13 1011.2 998.7 0.2
16 12.09 Ю 4 30 км 4/4 300 м
[]
+14.3 +12.7 90 +13 +13 1010.9 998.5
17 12.09 ЮЗ 3-8
{9}
50 км ясно +13.8 +11.8 88 +13 +13 1010.9 998.4
18 12.09 ЮЗ 4 50 км ясно +13.0 +10.7 86 +11 +11 1011.3 998.8 +12.9 +17.9 0.7
19 12.09 ЮЗ 3 35 км 3/3 1500 м
[]
+12.5 +10.5 88 +11 +11 1011.5 998.9
20 12.09 ЮЗ 3 35 км 1/1 2000 м
[]
+12.0 +10.3 89 +10 +10 1011.4 998.9
21 12.09 ЮЗ 3-6
{7}
30 км ясно +11.6 +10.4 92 +10 +10 1011.1 998.5
22 12.09 ЮЗ 3 30 км ясно +11.2 +10.3 94 +9 +9 1011.3 998.7
23 12.09 ЮЗ 2 19 км ясно +10.7 +10.2 97 +9 +9 1011.1 998.5
00 13.09 ЮЗ 2-6
{6}
15 км 3/1 100 м
[]
+10.9 +10.5 97 +9 +9 1010.5 997.9
01 13.09 ЮЗ 2 16 км 9/6
[]
+11.5 +11.0 97 +10 +10 1010.1 997.6
02 13.09 ЮЗ 2-4
{6}
11 км 9/1 200 м
[]
+11.8 +11.3 97 +11 +11 1009.6 997.1
03 13.09 Ю 2-5
{5}
15 км 9/6 100 м
[]
+12.3 +11.8 97 +11 +11 1008.9 996.4
04 13.09 ЮЗ 3 16 км 8/8
[]
+12.5 +12.0 97 +11 +11 1008.5 996.0
05 13.09 ЮЗ 3 24 км в посл. час морось 9/4 300 м
[]
+12.8 +12.0 95 +11 +11 1008.0 995.5
06 13.09 ЮЗ 3 30 км 9/9 200 м
[]
+13.4 +11.8 90 +12 +12 1007.6 995.2 +10.7 +13.4
07 13.09 ЮЗ 3-7
{8}
35 км 9/9 300 м
[]
+13.5 +11.5 88 +12 +12 1007.4 995.0
08 13.09 ЮЗ 2 40 км 10/10 300 м
[]
+13.9 +11.3 84 +13 +13 1007.0 994.6
09 13.09 З 2-8
{8}
45 км в посл. час морось 8/6 300 м
[]
+14.3 +10.6 78 +14 +15 1006.8 994.3
10 13.09 СЗ 2 50 км в посл. час дождь 9/9 300 м
[]
+14.2 +11.4 83 +14 +14 1006.6 994.1
11 13.09 С 2 6000 м слаб. дождь 9/9 300 м
[]
+13.3 +10.2 81 +13 +13 1006.5 994.0
12 13.09 З 2-4
{4}
50 км в посл. час дождь 8/8 1500 м
[]
+13.1 +11.7 91 +12 +13 1006.2 993.8 0.8
13 13.09 СЗ 1 45 км 9/9 300 м
[]
+13.7 +11.1 84 +14 +14 1006.0 993.5
14 13.09 СЗ 1 50 км 8/8 2000 м
[]
+13.9 +9.8 76 +14 +15 1005.8 993.4
15 13.09 СЗ 3-7
{7}
50 км 9/9
[]
+13.7 +9.3 75 +13 +13 1005.9 993.5
16 13.09 СЗ 2 50 км 9/1 600 м
[]
+13.5 +9.3 76 +13 +13 1006.1 993.6
17 13.09 СЗ 2 50 км 9/4 600 м
[]
+13.0 +9.7 80 +12 +12 1006.4 993.9
18 13.09 СЗ 2-7
{7}
50 км 1/1 1000 м
[]
+12.4 +8.6 78 +12 +12 1006.7 994.2 +11.9 +14.5 3
19 13.09 СЗ 2-6
{6}
50 км ясно +11.9 +7.8 76 +11 +11 1006.8 994.3
20 13.09 СЗ 3 50 км ясно +11.3 +7.2 76 +10 +10 1007.1 994.6
21 13.09 СЗ 3-7
{8}
50 км ясно +10.4 +6.1 75 +8 +8 1007.6 995.0
22 13.09 СЗ 4 50 км ясно +9.8 +5.9 77 +7 +7 1007.7 995.1
23 13.09 З 3 45 км ясно +9.1 +6.0 81 +7 +7 1007.9 995.3
00 14.09 З 4-9
{10}
50 км 6/6 1500 м
[]
+8.9 +6.4 84 +6 +6 1008.2 995.5
01 14.09 СЗ 4 50 км 1/1 1500 м
[]
+8.6 +6.5 87 +5 +5 1008.6 995.9
02 14.09 З 4-8
{9}
50 км 1/0
[]
+8.4 +6.4 87 +5 +5 1009.0 996.3
03 14.09 З 4-9
{9}
50 км 1/1 2000 м
[]
+8.1 +6.2 88 +5 +5 1009.4 996.7
04 14.09 З 4 50 км ясно +8.0 +6.4 90 +5 +5 1009.6 996.9
05 14.09 СЗ 4-10
{10}
50 км ясно +8.3 +6.5 88 +5 +5 1009.9 997.2
06 14.09 СЗ 4-11
{11}
45 км 1/1 300 м
[]
+9.2 +5.8 79 +6 +7 1010.1 997.5 +8.0 +12.4
07 14.09 СЗ 4-10
{13}
50 км 1/1 600 м
[]
+9.9 +5.0 72 +7 +9 1010.5 997.8
08 14.09 СЗ 5 50 км 3/3 600 м
[]
+11.2 +4.4 63 +9 +10 1010.7 998.1
09 14.09 СЗ 4-10
{13}
50 км 5/5 1000 м
[]
+11.2 +3.5 59 +9 +11 1011.2 998.6
10 14.09 СЗ 4 40 км 4/4 1000 м
[]
+12.0 +3.4 56 +10 +13 1011.3 998.7
11 14.09 СЗ 5 50 км 9/9 1000 м
[]
+12.1 +2.7 53 +10 +10 1011.4 998.9
12 14.09 СЗ 5-11
{13}
50 км 3/3 1000 м
[]
+12.2 +2.5 51 +10 +12 1011.5 998.9
13 14.09 СЗ 3 50 км 6/6 1000 м
[]
+11.7 +3.0 55 +10 +11 1011.7 999.1
14 14.09 СЗ 4 50 км ясно +12.1 +2.3 51 +10 +12 1011.8 999.2
15 14.09 СЗ 2-6
{10}
50 км 1/1 1500 м
[]
+11.9 +3.2 55 +11 +12 1011.9 999.3
16 14.09 С 2 50 км 4/4 1500 м
[]
+11.6 +3.0 56 +11 +11 1012.0 999.4
17 14.09 СЗ 1-4
{7}
50 км 3/0 2000 м
[]
+10.6 +4.3 65 +11 +11 1012.2 999.5
18 14.09 З 4-7
{7}
50 км ясно +9.7 +4.0 68 +7 +7 1012.5 999.8 +9.1 +12.8
19 14.09 З 3 50 км ясно +9.3 +4.8 73 +7 +7 1012.8 1000.1
20 14.09 СЗ 3-8
{8}
50 км ясно +8.7 +5.0 78 +6 +6 1013.0 1000.3
21 14.09 З 3-7
{8}
50 км ясно +8.1 +5.4 83 +5 +5 1013.0 1000.2
22 14.09 З 3 50 км ясно +7.9 +5.8 87 +5 +5 1012.8 1000.0
23 14.09 З 1 50 км ясно +7.0 +5.6 91 +6 +6 1012.3 999.5
00 15.09 ЮЗ 1-3
{5}
50 км ясно +5.1 +4.5 96 +4 +4 1011.9 999.0
01 15.09 ЮЗ 1 50 км ясно +4.9 +4.3 96 +3 +3 1011.5 998.6
02 15.09 Ю 1 30 км 9/9 <50 м
[]
+3.6 +3.3 98 +2 +2 1010.5 997.6
03 15.09 Ю 1-4
{4}
22 км 9/8 <50 м
[]
+4.0 +3.8 99 +2 +2 1009.3 996.4
04 15.09 Ю 2-2
{3}
14 км 9/0
[]
+4.1 +3.9 99 +1 +1 1008.1 995.3
05 15.09 Ю 2-4
{4}
45 км 9/9
[]
+3.9 +3.5 97 +1 +1 1006.7 993.8
06 15.09 Ю 3 40 км осадки 9/9 600 м
[]
+4.9 +4.2 95 +1 +1 1004.9 992.1 +3.6 +9.7
07 15.09 Ю 3 10 км слаб. ливневой дождь 10/10 600 м
[]
+6.2 +5.9 98 +3 +3 1003.1 990.4
08 15.09 ЮВ 5 10 км слаб. дождь 10/10 300 м
[]
+7.3 +7.0 98 +3 +3 1000.6 987.9
09 15.09 Ю 4-10
{11}
9000 м слаб. дождь 10/10 100 м
[]
+8.5 +8.2 98 +5 +5 997.6 985.0 2
10 15.09 ЮВ 5 6000 м дождь 10/10 100 м
[]
+8.8 +8.4 97 +5 +5 995.8 983.3
11 15.09 ЮВ 4 4200 м дождь 10/10 100 м
[]
+9.4 +9.1 98 +6 +6 993.4 980.9
12 15.09 Ю 3-6
{8}
10 км слаб. дождь 10/10 100 м
[]
+10.2 +9.9 98 +8 +8 990.9 978.5 1
13 15.09 Ю 4-9
{9}
6000 м дождь 10/0 100 м
[]
+10.5 +10.2 98 +8 +8 988.8 976.4 3
14 15.09 Ю 2-4
{8}
13 км слаб. дождь 10/0 100 м
[]
+11.0 +10.7 98 +10 +10 986.9 974.6 0.8
15 15.09 ЮЗ 2-5
{6}
1900 м сильн. дождь 10/10 100 м
[]
+11.1 +10.8 98 +10 +10 985.2 972.9 3
16 15.09 СЗ 4 35 км слаб. дождь 9/9 200 м
[]
+10.3 +8.6 89 +8 +8 984.5 972.2
17 15.09 ЮЗ 2-6
{7}
50 км 9/9 1000 м
[]
+9.2 +8.1 93 +7 +7 985.5 973.1
18 15.09 ЮЗ 3-7
{7}
50 км 9/9 200 м
[]
+9.1 +8.2 94 +7 +7 985.4 973.0 +4.9 +11.3 20
19 15.09 З 3 50 км 9/9 300 м
[]
+9.4 +8.2 92 +7 +7 985.5 973.1
20 15.09 З 3 50 км 9/9 300 м
[]
+9.3 +8.0 92 +7 +7 985.8 973.4
21 15.09 З 2-7
{10}
50 км 6/6 300 м
[]
+8.3 +6.9 91 +6 +6 985.8 973.4
22 15.09 ЮЗ 3-7
{8}
50 км 10/0 600 м
[]
+8.8 +7.1 89 +6 +6 985.4 973.0
23 15.09 З 3 45 км 10/10 300 м
[]
+8.7 +6.8 88 +6 +6 985.3 972.9
00 16.09 З 3-7
{11}
50 км 10/10 300 м
[]
+8.6 +6.5 87 +6 +6 985.1 972.7
01 16.09 ЮЗ 3 45 км 10/10 300 м
[]
+8.3 +6.5 88 +6 +6 985.1 972.7
02 16.09 З 3-10
{10}
50 км 10/10 300 м
[]
+8.2 +6.3 88 +5 +5 985.1 972.7
03 16.09 З 3-9
{10}
50 км 10/10 600 м
[]
+8.3 +5.9 85 +6 +6 985.1 972.7
04 16.09 З 5 35 км 10/10 300 м
[]
+8.3 +6.0 85 +5 +5 985.0 972.5
05 16.09 З 6 50 км 10/10 300 м
[]
+8.2 +5.5 83 +4 +4 985.0 972.6
06 16.09 СЗ 5-11
{12}
26 км морось 10/10 300 м
[]
+8.0 +6.2 88 +4 +4 985.1 972.7 +8.0 +9.5
07 16.09 СЗ 3-7
{10}
18 км морось 10/0 300 м
[]
+7.6 +6.1 90 +5 +5 985.6 973.2 0.2
08 16.09 СЗ 3-8
{10}
50 км слаб. морось 9/9 300 м
[]
+8.1 +6.6 90 +5 +6 986.1 973.7
09 16.09 СЗ 3-9
{10}
8000 м слаб. ливневой дождь 10/10 300 м
[]
+8.1 +7.1 93 +5 +5 987.0 974.5
10 16.09 С 3 50 км слаб. морось 10/0 300 м
[]
+8.9 +7.4 90 +6 +6 987.7 975.3
11 16.09 С 3 28 км морось 10/10 200 м
[]
+9.0 +7.6 91 +6 +6 988.8 976.3
12 16.09 СЗ 3-9
{10}
28 км морось 9/9 300 м
[]
+9.2 +7.3 88 +7 +7 989.8 977.3 0.1
13 16.09 С 4-10
{10}
35 км морось 10/0 300 м
[]
+8.9 +7.2 89 +6 +6 990.6 978.1 0.3
14 16.09 С 4 50 км в посл. час морось 9/9 600 м
[]
+9.5 +5.7 77 +7 +7 991.2 978.8
15 16.09 С 2-6
{8}
50 км в посл. час морось 9/9 300 м
[]
+9.6 +6.6 82 +8 +8 991.9 979.5
16 16.09 С 4 50 км 8/8 1000 м
[]
+9.6 +5.2 74 +7 +7 992.3 979.9
17 16.09 С 4 50 км 10/0
[]
+9.2 +5.1 76 +6 +6 992.7 980.2
18 16.09 С 2-6
{8}
50 км 10/0
[]
+8.6 +5.7 82 +7 +7 993.0 980.5 +7.6 +9.8 0.6
19 16.09 С 2-5
{7}
50 км ясно +8.1 +5.9 86 +6 +6 993.4 980.8
20 16.09 С 2-10
{10}
50 км 8/1 300 м
[]
+8.1 +4.8 80 +6 +6 993.6 981.1
21 16.09 СЗ 2-6
{9}
50 км 9/9
[]
+7.5 +4.7 82 +5 +5 993.8 981.3

 

Местоположение метеостанции Лаппеенранта (Финляндия): широта 61.06 долгота 28.21 высота над уровнем моря 103 м.

В архиве по умолчанию представлена погода в Лаппеенранте за последнюю неделю. Архивные данные за месяц целиком и за предыдущие месяцы, начиная с января 2011 года, Вы можете получить, выбрав интересующий диапазон дат из раскрывающегося списка и нажав кнопку "Ввод!".


*Определитесь, кто Вы:
робот инопланетянин человек

Внимание! Время в таблицах - всемирное. Для получения местного времени необходимо прибавить поправку, которая равна 1 ч.

Смотрите также архив погоды в соседних городах и на ближайших метеорологических станциях:

Погода в Лаппеенранта аэропорту (Финляндия) (4 км)
Погода в Хиеккапакке (Финляндия) (21 км)
Погода в Лесогорском (Ленинградская область, Россия) (39 км)
Погода в Выборге (Ленинградская область, Россия) (47 км)
Погода в Пуумале (Финляндия) (51 км)
Погода в Коивуниеми (Финляндия) (66 км)
Погода в Утти Lentoportintie (Финляндия) (71 км)
Погода в Аэропорту Утти (Финляндия) (71 км)
Погода в Париккала Коицанлахти (Финляндия) (79 км)
Погода в Аньяла (Финляндия) (86 км)

Пояснения к столбцам:

Ветер - указаны скорость ветра в м/с - средняя за 10 мин, порывы в срок и между сроками (в фигурных скобках) и направление, откуда дует ветер: С - северный, СВ - северо-восточный, В - восточный, ЮВ - юго-восточный, Ю - южный, ЮЗ - юго-западный, З - западный, СЗ - северо-западный.
Видимость - горизонтальная дальность видимости в метрах или километрах. При видимости от 1 до 10 км при отсутствии осадков обычно наблюдается дымка, при ухудшении видимости до 1 км и менее - туман. В сухую погоду видимость может ухудшаться дымом, пылью или мглою.
Явления - указаны атмосферные явления, наблюдавшиеся в срок или в последний час перед сроком; фигурными скобками обозначены явления, наблюдавшиеся между сроками (за 1-3 часа до срока); квадратными скобками обозначены град или гололедные отложения с указанием их диаметра в мм.
Облачность - указаны через наклонную черту общая и нижняя облачность в баллах и высота нижней границы облаков в метрах; квадратными скобками обозначены формы облаков: Ci - перистые, Cs - перисто-слоистые, Cc - перисто-кучевые, Ac - высококучевые, As - высокослоистые, Sc - слоисто-кучевые, Ns - слоисто-дождевые, Cu - кучевые, Cb - кучево-дождевые. Подробнее классификацию облаков см. в Атласе облаков (PDF).
T - Температура воздуха - температура, измеренная на высоте 2 м над землей.
Td - Температура точки росы - температура, при понижении до которой содержащийся в воздухе водяной пар достигнет насыщения.
f - Относительная влажность воздуха - влажноcть воздуха, измеренная на высоте 2 м над землей.
Te - Эффективная температура - температура, которую ощущает одетый по сезону человек в тени. Характеристика душности погоды. При расчете учитывается влияние влажности воздуха и скорости ветра на теплоощущения человека.
Tes - Эффективная температура на солнце - температура, которую ощущает человек, с поправкой на солнечный нагрев. Характеристика знойности погоды. Зависит от высоты солнца над горизонтом, облачности и скорости ветра. Ночью, в пасмурную погоду, а также при ветре 12 м/с и более поправка равна нулю.
P - Атмосферное давление - приведенное к уровню моря атмосферное давление.
Po - Атмосферное давление - измеренное на уровне метеостанции атмосферное давление.
Tmin - Минимальная температура - минимум температуры воздуха на высоте 2 м над землей.
Tmax - Максимальная температура - максимум температуры воздуха на высоте 2 м над землей.
R - Количество осадков - Количество выпавших осадков за период времени, мм. При наведении курсора мыши на число - период времени, за который выпало указанное количество осадков.
R24 - Количество осадков - Количество выпавших осадков за 24 часа, мм.
S - Снежный покров - Высота снежного покрова, см. При наведении курсора мыши на число - состояние снежного покрова и степень покрытия местности в баллах.